www.pogodaiklimat.ru

Погода и климат >> Архив погоды >> Россия >> Ленинградская область >> Сосновый Бор


ПОГОДА в Сосновом Бору

  • Прогноз погоды в Сосновом Бору
  • Монитор погоды в Сосновом Бору
  • Климат города

АРХИВ ПОГОДЫ в Сосновом Бору

Время (UTC), дата Ветер
(напр.,м/с)
 
Видим.   Явления Облачность Т
(С)
Тd
(С)
f
(%)
Тe
(С)
Тes
(С)
Комфортность P
(гПа)
Po
(гПа)
Тmin
(С)
Tmax
(С)
R
(мм)
R24
(мм)
S
(см)
12 15.09 ЮЗ 4 н/о 9/1
[Cu hum Ac cast Cc]
+18.1 +9.1 56 +18 +20 1014.2 1011.8
15 15.09 Ю 2 н/о 10/3
[Sc Cc]
+16.3 +9.8 65 +16 +17 1013.2 1010.8
18 15.09 Ю 2 н/о 10/10
[Sc]
+14.4 +9.0 70 +14 +14 1012.4 1009.9 +18.3
21 15.09 Ю 4 н/о в посл. час дождь 10/10
[Sc]
+13.9 +8.8 71 +13 +13 1010.8 1008.3
00 16.09 Ю 1 н/о {дождь} 10/10
[St]
+12.4 +9.4 82 +12 +12 1009.6 1007.1
03 16.09 Ю 1 н/о дождь 10/10
[Frnb Ns]
+11.2 +10.1 93 +11 +11 1009.2 1006.7
06 16.09 З 4 н/о {дождь} 8/6
[Cb calv Ac cast Ci sp]
+12.1 +10.3 89 +10 +10 1010.0 1007.5 +10.5 7
09 16.09 СЗ 4 н/о {ливн. осадки} 3/3
[Cu med, cong]
+13.8 +8.2 69 +12 +15 1012.6 1010.1
12 16.09 З 4 н/о {ливн. осадки} 1/0
[]
+14.9 +6.4 57 +14 +17 1013.6 1011.1
15 16.09 З 4 н/о 3/1
[Cb cap Ac lent Ci ing]
+15.3 +8.3 63 +14 +15 1013.8 1011.3
18 16.09 ЮЗ 2 н/о 1/0
[]
+11.3 +8.7 84 +10 +10 1014.1 1011.6 +16.0 0.6
21 16.09 Ю 2 н/о 1/0
[]
+8.7 +6.3 85 +7 +7 1014.2 1011.7
00 17.09 Ю 2 н/о слабый ливневой дождь 8/8
[Cb calv]
+8.7 +6.8 88 +7 +7 1013.8 1011.3
03 17.09 Ю 3 н/о 4/1
[Cb cap Ci fib]
+7.5 +6.3 92 +5 +5 1013.5 1011.0 +7.5
06 17.09 Ю 3 н/о 10/0
[Ac lent Cs]
+9.8 +7.5 86 +8 +8 1012.7 1010.2 +7.5 0.4
09 17.09 Ю 4 н/о дождь 10/10
[Frnb Ns]
+12.2 +10.0 86 +10 +10 1011.0 1008.5
12 17.09 Ю 6 н/о дождь 10/10
[Frnb Ns]
+11.5 +9.7 89 +8 +8 1006.6 1004.1
15 17.09 ЮЗ 4
{11}
н/о дождь 10/10
[Frnb Ns]
+12.7 +11.4 92 +11 +11 1004.1 1001.7
18 17.09 ЮЗ 8-12
{14}
н/о в посл. час ливневой дождь 9/8
[Cb cap Ac trans]
+14.6 +11.7 83 +12 +12 1004.3 1001.9 +14.7 8
21 17.09 З 6-12
{14}
н/о 9/9
[Sc]
+14.3 +10.1 76 +12 +12 1005.5 1003.1
00 18.09 З 6-12
{14}
н/о 9/9
[Sc]
+14.3 +10.1 76 +12 +12 1005.5 1003.1
03 18.09 СЗ 5
{13}
н/о 8/8
[Cu med, cong]
+12.8 +7.6 71 +11 +11 1010.6 1008.1 +12.6
06 18.09 З 4 н/о 10/4
[Cu med, cong Ac trans Cc]
+13.6 +8.3 70 +12 +12 1012.7 1010.2 +12.6
09 18.09 З 4 н/о н/о +15.1 +8.2 63 +14 +14 1014.0 1011.5
12 18.09 ЮЗ 3 н/о 9/3
[Cu hum Ac lent Cc]
+15.5 +9.0 65 +15 +16 1014.0 1011.5
15 18.09 ЮЗ 2 н/о 10/10
[Cu Sc]
+15.2 +10.3 73 +15 +15 1013.0 1010.5
18 18.09 Ю 2 н/о в посл. час дождь 10/10
[St]
+13.3 +9.8 79 +13 +13 1012.6 1010.1 +15.9 0.0
21 18.09 ЮЗ 3 н/о 10/10
[St]
+13.8 +11.5 86 +13 +13 1010.9 1008.4
00 19.09 ЮЗ 3 н/о 10/10
[St]
+14.2 +11.7 85 +13 +13 1009.9 1007.5
03 19.09 ЮЗ 2 н/о 1/0
[]
+12.4 +10.6 89 +11 +11 1009.6 1007.1 +12.6
06 19.09 Ю 2 н/о ясно +13.7 +11.0 84 +13 +14 1009.2 1006.7 +12.3
09 19.09 ЮЗ 4 н/о ясно +19.0 +12.1 64 +20 +23 1008.5 1006.1
12 19.09 ЮЗ 4 н/о 6/0
[Ac trans Cs]
+23.3 +13.2 53 +26 +28 жарко 1007.0 1004.6
15 19.09 З 3
{11}
н/о 1/0
[]
+18.0 +13.7 76 +18 +18 1007.8 1005.4
18 19.09 ЮЗ 4
{11}
н/о 3/3
[St]
+16.3 +13.2 82 +16 +16 1008.8 1006.4 +23.5
21 19.09 ЮЗ 6-10
{10}
н/о 3/3
[St]
+16.4 +12.4 77 +15 +15 1009.1 1006.7
00 20.09 ЮЗ 5
{11}
н/о ясно +15.9 +12.6 81 +15 +15 1009.8 1007.4
03 20.09 ЮЗ 3 н/о ясно +12.5 +11.2 92 +11 +11 1010.5 1008.0 +12.4
06 20.09 ЮЗ 3 н/о 10/9
[St Ac trans Cs]
+14.4 +12.2 87 +13 +13 1011.4 1008.9 +12.4
09 20.09 Ю 5
{10}
н/о 10/8
[Sc Ac trans Cc]
+18.1 +13.7 75 +18 +18 1011.0 1008.6
12 20.09 ЮЗ 5
{10}
н/о 10/1
[Cu hum Ac cast Cs]
+20.8 +13.5 63 +23 +24 комфорт 1010.7 1008.3
15 20.09 ЮЗ 5
{11}
н/о 9/0
[Ac cast Cc]
+19.3 +13.8 70 +20 +21 1010.5 1008.1
18 20.09 ЮЗ 4 н/о 10/0
[Cs]
+17.7 +13.8 78 +17 +17 1010.1 1007.7 +21.3
21 20.09 ЮЗ 4 н/о 10/0
[Cs]
+16.7 +13.0 79 +16 +16 1010.6 1008.2
00 21.09 ЮЗ 3 н/о 10/0
[Cs]
+16.0 +13.0 82 +16 +16 1010.7 1008.3 -1.5
03 21.09 ЮЗ 2 н/о 10/10
[Sc]
+15.3 +13.0 86 +15 +15 1011.7 1009.3 +15.2
06 21.09 Ю 3 н/о {ливн. осадки} 9/9
[Sc]
+15.5 +13.3 87 +15 +15 1012.2 1009.8 +15.2 0.0
09 21.09 ЮЗ 4 н/о 9/6
[Cu Sc Ac trans Ci fib]
+17.9 +13.6 76 +18 +19 1012.9 1010.4
12 21.09 ЮЗ 3 н/о 4/0
[Ac trans Cs]
+20.4 +14.1 67 +23 +26 комфорт 1012.1 1009.7
18 21.09 Ю 5
{10}
н/о 10/0
[Ac trans Cs]
+20.0 +12.0 60 +22 +22 комфорт 1008.6 1006.2 +21.5

 

Местоположение метеостанции Сосновый Бор (Ленинградская область, Россия): широта 59.82 долгота 29.17 высота над уровнем моря 21 м.

В архиве по умолчанию представлена погода в Сосновом Бору за последнюю неделю. Архивные данные за месяц целиком и за предыдущие месяцы, начиная с января 2011 года, Вы можете получить, выбрав интересующий диапазон дат из раскрывающегося списка и нажав кнопку "Ввод!".


*Определитесь, кто Вы:
робот инопланетянин человек

Внимание! Время в таблицах - всемирное. Для получения местного времени необходимо прибавить поправку, которая в Сосновом Бору равна 3 ч.

Смотрите также архив погоды в соседних городах и на ближайших метеорологических станциях:

Погода в Шепелево (Ленинградская область, Россия) (7 км)
Погода в Ломоносове (город Санкт-Петербург, Россия) (36 км)
Погода в Кронштадте (город Санкт-Петербург, Россия) (37 км)
Погода в Озерках (Ленинградская область, Россия) (43 км)
Погода в Волосово (Ленинградская область, Россия) (47 км)
Погода в Лисьем Носу (город Санкт-Петербург, Россия) (50 км)
Погода в Рощино (Ленинградская область, Россия) (54 км)
Погода в Кингисеппе (Ленинградская область, Россия) (59 км)
Погода в Санкт-Петербурге (город Санкт-Петербург, Россия) (65 км)
Погода в Белогорке (Ленинградская область, Россия) (75 км)

Пояснения к столбцам:

Ветер - указаны скорость ветра в м/с - средняя за 10 мин, порывы в срок и между сроками (в фигурных скобках) и направление, откуда дует ветер: С - северный, СВ - северо-восточный, В - восточный, ЮВ - юго-восточный, Ю - южный, ЮЗ - юго-западный, З - западный, СЗ - северо-западный.
Видимость - горизонтальная дальность видимости в метрах или километрах. При видимости от 1 до 10 км при отсутствии осадков обычно наблюдается дымка, при ухудшении видимости до 1 км и менее - туман. В сухую погоду видимость может ухудшаться дымом, пылью или мглою.
Явления - указаны атмосферные явления, наблюдавшиеся в срок или в последний час перед сроком; фигурными скобками обозначены явления, наблюдавшиеся между сроками (за 1-3 часа до срока); квадратными скобками обозначены град или гололедные отложения с указанием их диаметра в мм.
Облачность - указаны через наклонную черту общая и нижняя облачность в баллах и высота нижней границы облаков в метрах; квадратными скобками обозначены формы облаков: Ci - перистые, Cs - перисто-слоистые, Cc - перисто-кучевые, Ac - высококучевые, As - высокослоистые, Sc - слоисто-кучевые, Ns - слоисто-дождевые, Cu - кучевые, Cb - кучево-дождевые. Подробнее классификацию облаков см. в Атласе облаков (PDF).
T - Температура воздуха - температура, измеренная на высоте 2 м над землей.
Td - Температура точки росы - температура, при понижении до которой содержащийся в воздухе водяной пар достигнет насыщения.
f - Относительная влажность воздуха - влажноcть воздуха, измеренная на высоте 2 м над землей.
Te - Эффективная температура - температура, которую ощущает одетый по сезону человек в тени. Характеристика душности погоды. При расчете учитывается влияние влажности воздуха и скорости ветра на теплоощущения человека.
Tes - Эффективная температура на солнце - температура, которую ощущает человек, с поправкой на солнечный нагрев. Характеристика знойности погоды. Зависит от высоты солнца над горизонтом, облачности и скорости ветра. Ночью, в пасмурную погоду, а также при ветре 12 м/с и более поправка равна нулю.
P - Атмосферное давление - приведенное к уровню моря атмосферное давление.
Po - Атмосферное давление - измеренное на уровне метеостанции атмосферное давление.
Tmin - Минимальная температура - минимум температуры воздуха на высоте 2 м над землей.
Tmax - Максимальная температура - максимум температуры воздуха на высоте 2 м над землей.
R - Количество осадков - Количество выпавших осадков за период времени, мм. При наведении курсора мыши на число - период времени, за который выпало указанное количество осадков.
R24 - Количество осадков - Количество выпавших осадков за 24 часа, мм.
S - Снежный покров - Высота снежного покрова, см. При наведении курсора мыши на число - состояние снежного покрова и степень покрытия местности в баллах.